Location: Deep River
(46.0977°N, 77.4933°W)
Time: 15:28:29
(UTC-04:00)

ISS - Visible Passes

Search period start: 20 October 2019 00:00
Search period end: 30 October 2019 00:00
Orbit: 411 x 421 km, 51.6° (Epoch: 20 October)

Date Brightness Start Highest point End Pass type
(mag) Time Alt. Az. Time Alt. Az. Time Alt. Az.
22 Oct -0.7 07:02:29 10° SSE 07:04:20 14° SE 07:06:11 10° E visible
24 Oct -2.0 07:00:29 10° SSW 07:03:32 33° SE 07:06:37 10° ENE visible
25 Oct -1.3 06:12:28 10° S 06:15:04 21° SE 06:17:40 10° E visible
26 Oct -0.9 05:25:28 11° SSE 05:26:38 13° SE 05:28:15 10° ESE visible
26 Oct -3.6 06:59:31 10° SW 07:02:52 77° SSE 07:06:14 10° ENE visible
27 Oct -3.0 06:12:22 21° SSW 06:14:17 49° SE 06:17:33 10° ENE visible
28 Oct -2.0 05:26:09 29° SE 05:26:09 29° SE 05:28:44 10° ENE visible
28 Oct -3.5 06:59:04 10° W 07:02:20 54° NNW 07:05:39 10° ENE visible
29 Oct -3.8 06:12:43 45° WSW 06:13:38 76° NNW 06:17:00 10° ENE visible
